EW6920 Weather Reports


time (UTC)temp
C
wind
direction
speed
KPH
gust
KPH
rain 1hr
cm
rain 24hr
cm
rain mn
cm
humidity
%
barometer
mb
20260906161603 24 223 4.8 11.3 0.00 0.00 0.00 64 1020.8
20260906160056 23 226 4.8 11.3 0.00 0.00 0.00 67 1020.8
20260906154604 23 205 6.4 11.3 0.00 0.00 0.00 67 1020.7
20260906153048 23 221 4.8 12.9 0.00 0.00 0.00 71 1020.8
20260906151555 22 213 6.4 12.9 0.00 0.00 0.00 72 1020.7
20260906150101 21 246 8.0 12.9 0.00 0.00 0.00 76 1020.8
20260906144620 20 238 9.7 12.9 0.00 0.00 0.00 78 1020.7
20260906143056 20 252 8.0 12.9 0.00 0.00 0.00 78 1020.7
20260906141607 20 246 9.7 16.1 0.00 0.00 0.00 81 1020.7
20260906140057 18 211 4.8 11.3 0.00 0.00 0.00 89 1020.9
20260906134549 17 255 6.4 11.3 0.00 0.00 0.00 95 1021.0
20260906133101 16 208 3.2 6.4 0.00 0.00 0.00 94 1021.0
20260906131557 16 0 0.0 1.6 0.00 0.00 0.00 94 1021.0
20260906130056 15 0 0.0 4.8 0.00 0.00 0.00 94 1020.9
20260906124550 15 0 0.0 3.2 0.00 0.00 0.00 94 1020.9
20260906123048 15 0 0.0 3.2 0.00 0.00 0.00 94 1020.8
20260906121559 15 0 0.0 0.0 0.00 0.00 0.00 93 1020.6
20260906120104 15 0 0.0 0.0 0.00 0.00 0.00 94 1020.4
20260906114550 15 0 0.0 0.0 0.00 0.00 0.00 93 1020.2
20260906113049 15 0 0.0 0.0 0.00 0.00 0.00 93 1020.0
20260906111556 15 0 0.0 0.0 0.00 0.00 0.00 93 1019.9
20260906110057 15 0 0.0 0.0 0.00 0.00 0.00 93 1019.7
20260906104611 15 0 0.0 0.0 0.00 0.00 0.00 93 1019.6
20260906103047 16 0 0.0 0.0 0.00 0.00 0.00 93 1019.8
20260906101548 16 0 0.0 0.0 0.00 0.00 0.00 93 1019.7
20260906100056 16 0 0.0 3.2 0.00 0.00 0.00 93 1019.6
20260906094622 16 0 0.0 3.2 0.00 0.00 0.00 93 1019.6
20260906093101 16 0 0.0 4.8 0.00 0.00 0.00 93 1019.5
20260906091555 16 0 1.6 6.4 0.00 0.00 0.00 93 1019.4
20260906090057 16 232 6.4 11.3 0.00 0.00 0.00 92 1019.4
20260906084550 16 235 6.4 11.3 0.00 0.00 0.00 93 1019.4
20260906083048 16 215 6.4 11.3 0.00 0.00 0.00 92 1019.4
20260906081553 17 198 3.2 9.7 0.00 0.00 0.00 92 1019.4
20260906080058 17 237 4.8 11.3 0.00 0.00 0.00 93 1019.4
20260906074557 16 234 6.4 11.3 0.00 0.00 0.00 92 1019.5
20260906073050 16 269 0.0 4.8 0.00 0.00 0.00 92 1019.7
20260906071558 16 184 0.0 3.2 0.00 0.00 0.00 91 1019.6
20260906070107 16 0 0.0 0.0 0.00 0.00 0.00 91 1019.8
20260906064555 16 0 0.0 0.0 0.00 0.00 0.00 91 1019.7
20260906063050 16 0 0.0 0.0 0.00 0.00 0.00 90 1019.7
20260906061551 16 0 0.0 3.2 0.00 0.00 0.00 91 1019.5
20260906060100 16 0 0.0 3.2 0.00 0.00 0.00 91 1019.4
20260906054557 16 0 0.0 1.6 0.00 0.00 0.00 91 1019.2
20260906053051 16 0 0.0 4.8 0.00 0.00 0.00 91 1019.3
20260906051556 16 0 0.0 1.6 0.00 0.00 0.00 92 1018.9
20260906050114 16 0 0.0 0.0 0.00 0.00 0.00 92 1019.1
20260906044555 16 0 0.0 0.0 0.00 0.00 0.00 91 1019.1
20260906043058 16 0 0.0 0.0 0.00 0.00 0.00 91 1018.9
20260906041550 17 0 0.0 0.0 0.00 0.00 0.00 90 1018.9
20260906040132 17 0 0.0 0.0 0.00 0.00 0.00 90 1018.5
20260906034603 17 0 0.0 0.0 0.00 0.00 0.00 90 1018.4
20260906033048 17 0 0.0 0.0 0.00 0.00 0.00 90 1018.4
20260906031602 17 0 0.0 0.0 0.00 0.00 0.00 89 1018.6
20260906030056 17 0 0.0 3.2 0.00 0.00 0.00 89 1018.4
20260906024550 17 0 1.6 3.2 0.00 0.00 0.00 88 1018.4
20260906023051 18 0 0.0 3.2 0.00 0.00 0.00 87 1018.2
20260906021605 18 0 0.0 0.0 0.00 0.00 0.00 86 1018.1
20260906020058 18 0 0.0 0.0 0.00 0.00 0.00 84 1018.1
20260906014601 18 0 0.0 0.0 0.00 0.00 0.00 83 1017.8
20260906013101 19 0 0.0 0.0 0.00 0.00 0.00 82 1017.7
20260906011602 20 0 0.0 0.0 0.00 0.00 0.00 79 1017.8
20260906010105 20 0 0.0 0.0 0.00 0.00 0.00 77 1017.6
20260906004550 21 0 0.0 3.2 0.00 0.00 0.00 74 1017.5
20260906003100 21 0 0.0 0.0 0.00 0.00 0.00 73 1017.3
20260906001607 22 0 0.0 3.2 0.00 0.00 0.00 71 1017.1
20260906000051 22 74 0.0 4.8 0.00 0.00 0.00 68 1017.2
20260905234549 23 77 1.6 4.8 0.00 0.00 0.00 68 1017.3
20260905233109 23 71 1.6 4.8 0.00 0.00 0.00 65 1017.3
20260905231554 24 80 1.6 3.2 0.00 0.00 0.00 66 1017.4
20260905230053 24 84 1.6 6.4 0.00 0.00 0.00 62 1017.4
20260905224608 25 0 1.6 4.8 0.00 0.00 0.00 63 1017.2
20260905223057 24 224 0.0 1.6 0.00 0.00 0.00 62 1017.1
20260905221552 25 0 0.0 0.0 0.00 0.00 0.00 64 1017.2
20260905220053 26 0 0.0 4.8 0.00 0.00 0.00 60 1017.2
20260905214554 26 162 1.6 11.3 0.00 0.00 0.00 55 1017.1
20260905213100 26 68 3.2 8.0 0.00 0.00 0.00 54 1017.2
20260905211549 27 0 1.6 6.4 0.00 0.00 0.00 53 1017.3
20260905210109 27 5 1.6 6.4 0.00 0.00 0.00 51 1017.5
20260905204555 27 347 3.2 6.4 0.00 0.00 0.00 55 1017.7
20260905203057 27 225 3.2 6.4 0.00 0.00 0.00 56 1017.6
20260905201605 27 221 0.0 3.2 0.00 0.00 0.00 52 1017.7
20260905200128 27 0 0.0 4.8 0.00 0.00 0.00 52 1017.7
20260905194554 27 259 1.6 9.7 0.00 0.00 0.00 55 1017.6
20260905193048 27 0 1.6 9.7 0.00 0.00 0.00 54 1017.8
20260905191546 26 293 1.6 8.0 0.00 0.00 0.00 54 1017.9
20260905190057 26 193 3.2 11.3 0.00 0.00 0.00 54 1017.8
20260905184609 26 242 3.2 8.0 0.00 0.00 0.00 56 1017.9
20260905183050 26 272 3.2 12.9 0.00 0.00 0.00 58 1018.1
20260905181547 26 279 3.2 12.9 0.00 0.00 0.00 57 1018.0
20260905174559 26 0 0.0 4.8 0.00 0.00 0.00 56 1018.6
20260905173046 25 329 1.6 8.0 0.00 0.00 0.00 58 1018.8
20260905171605 25 157 3.2 9.7 0.00 0.00 0.00 62 1018.6
20260905170059 24 10 1.6 6.4 0.00 0.00 0.00 60 1018.6
20260905164551 24 0 3.2 9.7 0.00 0.00 0.00 62 1018.9
20260905163051 23 74 0.0 8.0 0.00 0.00 0.00 63 1018.7